Home > Weather > Kansas City > Past weeks

Flag for USA Weather for the Past 2 Weeks in Kansas City, Missouri, USA

Now
68 °F

Broken clouds.


Feels Like: 68 °F
Forecast: 55 / 69 °F
Wind: 12 mph from Southwest

Location: Kansas City Downtown Airport

Current Time: Apr 30, 2016 at 12:16:55 PM

Latest Report: Apr 30, 2016 at 10:54 AM


Visibility: 10 mi

Pressure: 29.63 "Hg

Humidity: 82%

Dew Point: 62 °F

Location of Kansas CityLocation

Historic Weather in Kansas City — Graph

°F

Kansas City Temperature Yesterday

Maximum temperature yesterday: 58 °F (at 1:54 PM)
Minimum temperature yesterday: 49 °F (at 5:54 AM)
Average temperature yesterday: 53 °F

High & Low Weather Summary for the Past Weeks

 TemperatureHumidityPressure
High81 °F (Apr 24, 1:54 PM)97% (Apr 20, 3:54 AM)30.21 "Hg (Apr 20, 3:54 AM)
Low48 °F (Apr 28, 4:54 AM)30% (Apr 23, 5:54 PM)29.40 "Hg (Apr 27, 4:54 AM)
Average64 °F70%29.91 "Hg
* Reported Apr 15 10:54 AM — Apr 30 10:54 AM, Kansas City, Weather by CustomWeather, © 2016

Note: Actual official high and low records may vary slightly from our data, if they occured in-between our weather recording intervals... More about our weather records

Advertising

Kansas City Weather History for the Previous 24 Hours

Scroll right to see more
 ConditionsComfort  
Time TempWeatherWind HumidityBarometerVisibility
10:54 AM
Sat, Apr 30
68 °FBroken clouds.12 mph82%29.63 "Hg10 mi
9:54 AM63 °FLow clouds.No wind90%29.62 "Hg10 mi
8:54 AM61 °FLow clouds.3 mph93%29.63 "Hg10 mi
7:54 AM60 °FLight rain. Fog.6 mph93%29.64 "Hg6 mi
6:54 AM59 °FLight rain. Fog.No wind96%29.64 "Hg4 mi
6:01 AM58 °FThundershowers. Low clouds.5 mph93%29.63 "Hg8 mi
4:54 AM57 °FFog.9 mph93%29.64 "Hg5 mi
3:54 AM56 °FLight rain. Fog.8 mph93%29.65 "Hg4 mi
3:03 AM55 °FFog.13 mph93%29.68 "Hg5 mi
2:54 AM55 °FFog.10 mph93%29.68 "Hg5 mi
1:54 AM55 °FFog.10 mph93%29.70 "Hg5 mi
12:54 AM54 °FFog.13 mph93%29.71 "Hg6 mi
11:54 PM
Fri, Apr 29
54 °FLight rain. Fog.16 mph90%29.75 "Hg6 mi
10:54 PM54 °FLight rain. Low clouds.15 mph90%29.79 "Hg7 mi
9:54 PM54 °FOvercast.16 mph86%29.79 "Hg9 mi
8:54 PM54 °FOvercast.12 mph86%29.80 "Hg9 mi
7:54 PM54 °FMostly cloudy.21 mph86%29.80 "Hg10 mi
6:54 PM54 °FPartly sunny.14 mph90%29.85 "Hg8 mi
5:54 PM54 °FRain. Fog.6 mph86%29.96 "Hg3 mi
5:02 PM55 °FLight rain. More clouds than sun.20 mph80%29.87 "Hg8 mi
4:54 PM55 °FLight rain. Mostly cloudy.17 mph80%29.88 "Hg8 mi
3:54 PM56 °FOvercast.14 mph72%29.92 "Hg10 mi
2:54 PM56 °FOvercast.18 mph75%29.93 "Hg10 mi
1:54 PM58 °FOvercast.20 mph70%29.95 "Hg10 mi
12:54 PM56 °FOvercast.10 mph70%30.00 "Hg10 mi
Weather by CustomWeather, © 2016

See weather overviewHow to use our weather pages